Regional Weather Roundup
Issued by NWS Grand Forks, ND

Home | Current Version | Previous Version | Graphics & Text | Print | Product List | Glossary On
Versions: 1 2 3 4 5 6 7 8 9 10 11 12 13 14 15 16 17 18 19 20 21 22 23 24 25 26 27 28 29 30 31 32 33 34 35 36 37 38 39 40 41 42 43 44 45 46 47 48 49 50
000
ASUS43 KFGF 040231
RWRFGF
PRAIRIE TO PINES  WEATHER ROUNDUP
NATIONAL WEATHER SERVICE EASTERN NORTH DAKOTA/GRAND FORKS ND
800 PM CST TUE MAR 03 2015

 **SATELLITE DATA USED TO AUGMENT SKY COVER AT AUTOMATED STATIONS**
 *****  WEATHER ACROSS EASTERN NORTH DAKOTA  *****

CITY           SKY/WX    TMP DP  RH WIND       PRES   REMARKS
GRAND FORKS    CLOUDY     3  -6  66 NW13      30.00R WCI -14
GRAND FRKS AFB CLEAR      1  -9  62 NW15      29.99R WCI -18
GRAND FRKS NWS   N/A      1 N/A N/A NW6         N/A  WCI -10
DEVILS LAKE    CLEAR      0 -11  60 W15       29.97R WCI -20
FARGO          CLEAR      5  -5  63 NW14      30.03R WCI -12
WAHPETON ARPT  CLEAR      5  -6  61 NW15G21   30.05R WCI -13
$$

 ***** WEATHER ACROSS CENTRAL AND WESTERN NORTH DAKOTA  *****

CITY           SKY/WX    TMP DP  RH WIND       PRES   REMARKS
BISMARCK       CLEAR      6  -4  63 NW12      30.05R WCI  -9
MINOT          CLEAR      1  -9  62 W13       29.99S WCI -17
JAMESTOWN      CLEAR      2  -7  66 NW14      30.00R WCI -16
MINOT AFB      CLEAR     -2  -8  72 W10       29.99R WCI -18
GARRISON         N/A     -1  -9  68 NW10      30.02R WCI -17
WILLISTON      CLOUDY     5  -3  69 CALM      30.00F
DICKINSON      CLEAR      5  -5  63 NW9       29.95R WCI  -9
HETTINGER      CLEAR      7  -6  55 NW13      29.99R WCI  -9
$$

 *****  OTHER AIRPORT OBSERVATIONS IN OUR AREA  *****

CITY           SKY/WX    TMP DP  RH WIND       PRES   REMARKS
WALHALLA         N/A      0  -9  65 NW10      29.97R WCI -17
GRAFTON AIRPOR NOT AVBL
VALLEY CITY AR FAIR       1  -4  78 NW17      30.00R WCI -19
CANDO          FAIR      -2  -8  78 W18       29.96R WCI -24
CAVALIER APRT  CLOUDY     1  -8  66 W16G23    29.98R WCI -18
GWINNER        CLEAR      9  -4  56 NW16      30.05R WCI  -9
ROLLA          FAIR      -2 -11  65 NW15G26   29.92R WCI -22
 ***** THE ABOVE OBSERVATIONS ARE NON NWS ARE NOT QUALITY
       CONTROLLED AND MAY MIS-REPORT RAIN FOR SNOW...
$$

  *****  WEATHER ACROSS NORTHERN MINNESOTA  *****

CITY           SKY/WX    TMP DP  RH WIND       PRES   REMARKS
FLAG ISLAND    PTCLDY     0  -9  65 NW10      29.84R WCI -17
WARROAD        CLEAR      0  -8  71 W10G16    29.87R WCI -17
ROSEAU         PTCLDY     0  -8  71 W13       29.89R WCI -18
HALLOCK        CLEAR      0  -9  65 NW18      29.95R WCI -22
THF RVR FALLS  CLEAR      0  -6  78 W16       29.94R WCI -21
BAUDETTE       CLOUDY     1  -5  75 W13       29.81R HAZE    WCI -17
WASKISH        CLEAR      0  -8  71 W15G21    29.86R WCI -20
CROOKSTON      MOCLDY     1  -6  71 NW15      30.00R WCI -18
$$
  *****  WEATHER ACROSS CENTRAL AND WEST MINNESOTA  *****

CITY           SKY/WX    TMP DP  RH WIND       PRES   REMARKS
FOSSTON        MOCLDY    -2  -9  71 W16G22    29.93S WCI -23
BEMIDJI        MOCLDY     0  -7  71 W13G22    29.88R WCI -18
PARK RAPIDS    MOCLDY     4  -4  69 NW17      29.88R WCI -16
ELBOW LAKE     FAIR       4  -4  71 NW17G23   30.00R WCI -16
WADENA         MOCLDY     1  -6  71 W10G16    29.93R WCI -14
DETROIT LAKES  CLEAR      3  -4  72 NW18G26   29.96R WCI -17
MOORHEAD       CLEAR      5  -2  72 NW17      30.03R WCI -14
FERGUS FALLS   CLEAR      3  -8  60 NW23      30.04R WCI -19
MORRIS MN      PTCLDY     5   0  78 NW14      30.02R WCI -12
STAPLES        CLEAR      1  -6  71 NW17      29.92R WCI -19
$$
  *****  WEATHER ELSEWHERE ACROSS MINNESOTA  *****

CITY           SKY/WX    TMP DP  RH WIND       PRES   REMARKS
DULUTH         PTCLDY     9  -3  58 W22G31    29.76R WCI -11
INTRNTL FALLS  CLEAR      2 -10  57 W12       29.78R WCI -15
ELY            FAIR       5  -2  72 W12G25    29.72R WCI -11
CLOQUET        FAIR       9  -2  61 W16G23    29.80R WCI  -9
WHEATON        CLEAR      3  -6  66 W15G23    30.08R WCI -15
BRAINERD       MOCLDY     5  -3  69 W8        29.91R WCI  -8
HIBBING        CLEAR      6  -6  57 W12G25    29.78R WCI  -9
ALEXANDRIA     PTCLDY     4  -4  69 NW18      29.96R WCI -16
SAINT CLOUD    PTCLDY     9   0  67 NW17      29.94R WCI  -9
MINNEAPOLIS    PTCLDY    13   3  64 W22G32    29.93R WCI  -6
$$

  *****  WEATHER ACROSS SOUTH DAKOTA  *****

CITY           SKY/WX    TMP DP  RH WIND       PRES   REMARKS
SIOUX FALLS    PTCLDY    11   2  67 NW10      30.04R WCI  -3
BROOKINGS      NOT AVBL
WATERTOWN      CLEAR      6  -2  69 NW15      30.01R WCI -12
HURON          PTCLDY     5  -1  76 NW8       30.08R WCI  -8
SISSETON         N/A      5  -4  66 NW14      30.04R WCI -12
ABERDEEN       CLEAR      5  -4  66 N7        30.07R WCI  -7
MITCHELL       PTCLDY     9   1  70 NW7       30.08R WCI  -2
PIERRE         CLEAR     12  -1  56 NW12      30.06R WCI  -2
MOBRIDGE       CLEAR     10  -1  61 N8        30.01R WCI  -2
RAPID CITY     PTCLDY    10  -1  61 N17       30.00R WCI  -8
$$

  *****  SOME WEATHER IN NEARBY STATES *****

CITY           SKY/WX    TMP DP  RH WIND       PRES   REMARKS
GLASGOW MT     MOCLDY    12  -2  53 NW23G36   30.04R WCI  -7
GREAT FALLS MT CLEAR     12  -2  53 NW3       30.07R
CHEYENNE WY    LGT SNOW   9   4  80 NE7       29.83R WCI  -2
SCOTTSBLUFF NE CLOUDY    17   9  70 NW12      29.99R WCI   4
OMAHA NE       PTCLDY    22   8  55 N17G24    30.06R WCI   8
DES MOINES IA  CLOUDY    26  16  65 N14       30.00R WCI  14
DAVENPORT IA   CLOUDY    31  24  75 W21       29.88R WCI  18
CHICAGO IL     CLOUDY    32  27  81 W10       29.80R WCI  24
EAU CLAIRE WI  CLEAR     20   7  57 W21G26    29.81R WCI   4
LA CROSSE WI   PTCLDY    24  13  62 W17       29.85R WCI  11
$$

  *****  SOME NATIONAL WEATHER *****

CITY           SKY/WX    TMP DP  RH WIND       PRES   REMARKS
LA GUARDIA NY  RAIN      34  30  86 S10       29.96F FOG
RALEIGH NC     DRIZZLE   36  33  89 W6        30.14F FOG
ATLANTA GA     FOG       50  49  96 E6        30.11S VSB<1/4
NEW ORLEANS LA MOCLDY    71  65  81 S8        30.01R
OKLAHOMA CITY  CLOUDY    49  41  74 N6        29.84R
ALBUQUERQUE NM PTCLDY    50  17  27 W12       29.79R
SALT LAKE CITY FLURRIES  32  27  81 NE10      29.95R WCI  24
LOS ANGELES CA PTCLDY    57  48  72 W14       29.90R
BOISE ID       CLEAR     39  12  33 NW10      30.03R
SEATTLE WA     MOCLDY    45  14  28 W3        30.22S
$$

*** WEATHER ACROSS MANITOBA...SASKATCHEWAN AND ONTARIO ***
                ***ONTARIO***

CITY           SKY/WX    TMP DP  RH WIND       PRES   REMARKS
GERALDTON      FLURRIES  14   5  67 W16G25    29.38R WCI  -2
THUNDER BAY    PTCLDY    14   3  62 W22G33    29.60R WCI  -4
SIOUX LOOKOUT  PTCLDY    -2 -15  55 NW18G26   29.67R WCI -24
TORONTO        CLOUDY    28  27  93 S5        29.56R FOG     WCI  23
BIG TROUT LK   LGT SNOW   0  -4  85 N13G18    29.48R WCI -18
PICKLE LAKE    FLURRIES   0 -11  60 NW14G30   29.51R WCI -19
DRYDEN         PTCLDY    -2  -9  71 W15G24    29.70R WCI -22
KENORA         FLURRIES  -4 -13  65 NW10G20   29.77R WCI -21
$$
                *** MANITOBA***

CITY           SKY/WX    TMP DP  RH WIND       PRES   REMARKS
BRANDON        CLEAR     -6 -15  65 NW15      29.96R WCI -27
DAUPHIN        PTCLDY    -4 -15  59 NW12      29.96R WCI -22
ISLAND LAKE    LGT SNOW  -6 -11  77 W14       29.72R DRFTSNOWWCI -26
PILOT MOUND      N/A     -4  -9  77 W10         N/A  WCI -21
THE PAS        FLURRIES  -9 -15  77 NW15      30.01R WCI -31
THOMPSON       MOCLDY    -6 -15  65 N16G24    29.96R WCI -28
WINNIPEG       MOCLDY    -6 -15  65 NW10      29.95R WCI -23
LYNN LAKE      CLEAR     -9 -17  70 N14       30.05R WCI -31
CHURCHILL      CRYSTALS -11 -17  77 N14       30.05  WCI -33
GILLAM         PTCLDY   -11 -17  77 N20G26    29.92R BLWGSNOWWCI -36
$$
                ***SASKATCHEWAN***

CITY           SKY/WX    TMP DP  RH WIND       PRES   REMARKS
ESTEVAN        FLURRIES   1  -4  78 NW22      29.97R WCI -21
KINDERSLEY     PTCLDY    -2  -9  71 N12       30.10R WCI -20
LLOYDMINSTER   PTCLDY    -2 -15  55 N12       30.12R WCI -20
PRINCE ALBERT  PTCLDY    -9 -20  59 N10       30.13R WCI -28
REGINA         PTCLDY    -4 -11  71 NW18      30.01R WCI -26
YORKTON        CLEAR     -6 -17  59 NW16G25   29.95R WCI -28
N. BATTLEFORD  CLEAR     -6 -15  65 N14       30.15R WCI -26
LA RONGE       PTCLDY    -9 -24  49 NW9       30.17R WCI -27
SASKATOON      CLEAR    -11 -20  64 N9        30.12R WCI -29
SWIFT CURRENT  MOCLDY    -2  -8  78 N15G21    30.04R WCI -22
$$
NOTE: THESE ARE AUTOMATED STATIONS WITH LIMITED QUALITY CONTROL
      "FAIR" INDICATES FEW OR NO CLOUDS BELOW 12,000 FEET WITH NO
      SIGNIFICANT WEATHER AND/OR OBSTRUCTIONS TO VISIBILITY.
      SKY/WX - SKY CONDITION AND SIGNIFICANT WEATHER.
      TMP - AIR TEMPERATURE.    DP   - DEWPOINT TEMPERATURE.
      RH  - RELATIVE HUMIDITY.  PRES - PRESSURE.
      HX  - HEAT INDEX.         WCI  - WIND CHILL INDEX.
$


USA.gov is the U.S. government's official web portal to all federal, state and local government web resources and services.